K7SPS-10 Weather Reports


time (UTC)temp
C
wind
direction
speed
KPH
gust
KPH
rain 1hr
cm
rain 24hr
cm
rain mn
cm
humidity
%
barometer
mb
20260503050730 15 206 3.2 3.2 0.00 0.00 0.00 56 1013.9
20260503050227 15 269 0.0 0.0 0.00 0.00 0.00 55 1013.9
20260503045724 15 217 0.0 3.2 0.00 0.00 0.00 54 1013.8
20260503045222 15 200 1.6 3.2 0.00 0.00 0.00 55 1013.9
20260503044718 15 203 4.8 4.8 0.00 0.00 0.00 55 1013.9
20260503044216 15 224 0.0 3.2 0.00 0.00 0.00 58 1013.6
20260503043712 15 202 3.2 3.2 0.00 0.00 0.00 58 1014.0
20260503043210 16 200 3.2 4.8 0.00 0.00 0.00 56 1013.8
20260503042706 16 221 0.0 4.8 0.00 0.00 0.00 54 1013.7
20260503042203 16 209 3.2 3.2 0.00 0.00 0.00 53 1013.5
20260503041658 17 129 0.0 1.6 0.00 0.00 0.00 50 1013.8
20260503041156 17 16 0.0 3.2 0.00 0.00 0.00 51 1013.5
20260503040654 17 8 0.0 1.6 0.00 0.00 0.00 51 1013.5
20260503040151 17 283 0.0 3.2 0.00 0.00 0.00 47 1013.2
20260503035647 18 204 4.8 4.8 0.00 0.00 0.00 46 1013.2
20260503035145 17 207 4.8 4.8 0.00 0.00 0.00 47 1013.2
20260503034643 18 204 4.8 4.8 0.00 0.00 0.00 45 1013.2
20260503034139 18 211 4.8 4.8 0.00 0.00 0.00 48 1013.1
20260503033636 18 201 0.0 3.2 0.00 0.00 0.00 47 1013.1
20260503033134 17 280 0.0 3.2 0.00 0.00 0.00 46 1013.0
20260503032632 18 50 0.0 1.6 0.00 0.00 0.00 45 1013.0
20260503032131 18 293 0.0 1.6 0.00 0.00 0.00 45 1012.8
20260503031628 18 304 0.0 0.0 0.00 0.00 0.00 44 1012.9
20260503031125 19 281 0.0 1.6 0.00 0.00 0.00 43 1012.9
20260503030621 19 220 0.0 3.2 0.00 0.00 0.00 42 1012.7
20260503030118 19 251 0.0 1.6 0.00 0.00 0.00 41 1012.7
20260503025615 19 217 0.0 1.6 0.00 0.00 0.00 42 1012.7
20260503025113 20 282 0.0 0.0 0.00 0.00 0.00 41 1012.9
20260503024609 20 50 0.0 0.0 0.00 0.00 0.00 39 1012.5
20260503024106 21 60 0.0 0.0 0.00 0.00 0.00 38 1012.7
20260503023603 21 323 3.2 4.8 0.00 0.00 0.00 37 1012.7
20260503023100 22 321 1.6 4.8 0.00 0.00 0.00 36 1012.3
20260503022556 22 330 3.2 4.8 0.00 0.00 0.00 36 1012.7
20260503022050 22 305 3.2 3.2 0.00 0.00 0.00 34 1012.7
20260503021548 23 325 4.8 4.8 0.00 0.00 0.00 33 1012.4
20260503021045 23 318 6.4 6.4 0.00 0.00 0.00 32 1012.7
20260503020542 23 0 1.6 4.8 0.00 0.00 0.00 31 1012.5
20260503020039 23 355 1.6 6.4 0.00 0.00 0.00 31 1012.5
20260503015535 24 312 4.8 6.4 0.00 0.00 0.00 30 1012.7
20260503015033 24 320 4.8 8.0 0.00 0.00 0.00 31 1012.8
20260503014528 25 326 4.8 8.0 0.00 0.00 0.00 30 1012.7
20260503014027 25 310 8.0 8.0 0.00 0.00 0.00 30 1013.0
20260503013524 25 316 6.4 11.3 0.00 0.00 0.00 28 1012.7
20260503013021 26 19 1.6 4.8 0.00 0.00 0.00 26 1012.9
20260503012519 26 336 6.4 8.0 0.00 0.00 0.00 26 1012.8
20260503012015 26 10 1.6 6.4 0.00 0.00 0.00 29 1013.0
20260503011511 27 335 4.8 4.8 0.00 0.00 0.00 24 1012.9
20260503011009 26 353 3.2 4.8 0.00 0.00 0.00 27 1012.9
20260503010505 26 359 3.2 4.8 0.00 0.00 0.00 25 1013.0
20260503010003 26 358 3.2 4.8 0.00 0.00 0.00 25 1012.9
20260503005459 26 337 3.2 4.8 0.00 0.00 0.00 22 1013.1
20260503004956 26 46 3.2 4.8 0.00 0.00 0.00 20 1013.2
20260503004453 26 338 1.6 3.2 0.00 0.00 0.00 20 1013.1
20260503003951 25 62 0.0 3.2 0.00 0.00 0.00 21 1013.3
20260503003447 25 350 1.6 4.8 0.00 0.00 0.00 21 1013.0
20260503002944 26 23 4.8 4.8 0.00 0.00 0.00 23 1013.3
20260503002442 26 48 8.0 8.0 0.00 0.00 0.00 22 1013.2
20260503001938 26 33 4.8 6.4 0.00 0.00 0.00 21 1013.2
20260503001435 26 37 4.8 9.7 0.00 0.00 0.00 23 1013.3
20260503000932 25 48 6.4 9.7 0.00 0.00 0.00 23 1013.0
20260503000430 26 33 0.0 6.4 0.00 0.00 0.00 23 1013.1
20260502235926 26 15 3.2 8.0 0.00 0.00 0.00 25 1013.3
20260502235423 26 25 1.6 4.8 0.00 0.00 0.00 25 1013.2
20260502234920 27 12 3.2 6.4 0.00 0.00 0.00 27 1013.2
20260502234417 26 27 3.2 8.0 0.00 0.00 0.00 25 1013.2
20260502233914 26 10 3.2 4.8 0.00 0.00 0.00 26 1013.3
20260502233409 26 35 6.4 8.0 0.00 0.00 0.00 28 1013.2
20260502232907 26 0 3.2 9.7 0.00 0.00 0.00 28 1013.4
20260502232403 26 3 4.8 6.4 0.00 0.00 0.00 28 1013.4
20260502231900 25 343 4.8 4.8 0.00 0.00 0.00 30 1013.5
20260502231357 25 17 3.2 9.7 0.00 0.00 0.00 31 1013.5
20260502230855 25 20 3.2 8.0 0.00 0.00 0.00 28 1013.6
20260502230353 26 291 4.8 4.8 0.00 0.00 0.00 25 1013.6
20260502225850 26 259 3.2 3.2 0.00 0.00 0.00 26 1013.9
20260502225346 25 55 6.4 9.7 0.00 0.00 0.00 28 1013.9
20260502224844 25 73 9.7 14.5 0.00 0.00 0.00 27 1014.0
20260502224339 26 263 1.6 4.8 0.00 0.00 0.00 28 1014.0
20260502223837 26 4 4.8 9.7 0.00 0.00 0.00 30 1014.3
20260502223335 25 57 4.8 9.7 0.00 0.00 0.00 28 1014.2
20260502222832 25 258 1.6 6.4 0.00 0.00 0.00 28 1014.4
20260502222330 25 76 4.8 8.0 0.00 0.00 0.00 27 1014.4
20260502221825 26 40 1.6 8.0 0.00 0.00 0.00 30 1014.4
20260502221322 26 60 4.8 6.4 0.00 0.00 0.00 30 1014.4
20260502220820 25 71 3.2 6.4 0.00 0.00 0.00 27 1014.4
20260502220315 25 73 3.2 6.4 0.00 0.00 0.00 28 1014.7
20260502215812 25 51 4.8 4.8 0.00 0.00 0.00 28 1014.7
20260502215309 25 114 4.8 11.3 0.00 0.00 0.00 30 1014.7
20260502214806 25 91 6.4 14.5 0.00 0.00 0.00 28 1015.0
20260502214303 25 60 4.8 11.3 0.00 0.00 0.00 29 1014.7
20260502213800 25 83 3.2 4.8 0.00 0.00 0.00 28 1014.9
20260502213257 24 107 0.0 6.4 0.00 0.00 0.00 27 1014.9
20260502212756 23 13 1.6 14.5 0.00 0.00 0.00 29 1015.2
20260502212254 25 4 1.6 8.0 0.00 0.00 0.00 30 1015.1
20260502211749 24 39 3.2 9.7 0.00 0.00 0.00 31 1015.2
20260502211246 23 80 6.4 14.5 0.00 0.00 0.00 30 1015.5
20260502210744 24 47 8.0 11.3 0.00 0.00 0.00 30 1015.4
20260502210241 24 111 4.8 6.4 0.00 0.00 0.00 32 1015.6
20260502205738 23 106 4.8 8.0 0.00 0.00 0.00 31 1015.8
20260502205234 23 73 1.6 8.0 0.00 0.00 0.00 31 1015.5
20260502204731 24 77 8.0 9.7 0.00 0.00 0.00 31 1015.9
20260502204229 23 249 1.6 8.0 0.00 0.00 0.00 31 1015.8
20260502203726 23 231 4.8 8.0 0.00 0.00 0.00 32 1016.1
20260502203225 23 150 3.2 3.2 0.00 0.00 0.00 32 1015.9
20260502202724 23 54 1.6 9.7 0.00 0.00 0.00 32 1016.1
20260502202222 23 75 6.4 8.0 0.00 0.00 0.00 33 1016.3
20260502201719 23 258 3.2 4.8 0.00 0.00 0.00 33 1016.3
20260502201216 22 352 3.2 9.7 0.00 0.00 0.00 34 1016.3
20260502200712 23 21 3.2 4.8 0.00 0.00 0.00 34 1016.5
20260502200208 22 145 3.2 4.8 0.00 0.00 0.00 36 1016.3
20260502195707 22 298 3.2 8.0 0.00 0.00 0.00 35 1016.4
20260502195203 22 285 4.8 8.0 0.00 0.00 0.00 37 1016.6
20260502194700 22 55 6.4 8.0 0.00 0.00 0.00 36 1016.5
20260502194156 22 330 3.2 8.0 0.00 0.00 0.00 39 1016.7
20260502193653 22 69 3.2 6.4 0.00 0.00 0.00 38 1016.6
20260502193150 22 49 1.6 6.4 0.00 0.00 0.00 41 1016.6
20260502192645 21 329 4.8 6.4 0.00 0.00 0.00 40 1016.6
20260502192143 21 258 4.8 8.0 0.00 0.00 0.00 39 1016.8
20260502191640 21 123 4.8 6.4 0.00 0.00 0.00 37 1016.9
20260502191137 21 69 8.0 9.7 0.00 0.00 0.00 38 1016.6
20260502190635 21 339 0.0 9.7 0.00 0.00 0.00 40 1016.7
20260502190132 21 58 4.8 8.0 0.00 0.00 0.00 41 1016.9
20260502185626 21 61 4.8 4.8 0.00 0.00 0.00 42 1017.1
20260502185124 20 66 3.2 8.0 0.00 0.00 0.00 39 1017.1
20260502184620 20 358 3.2 8.0 0.00 0.00 0.00 40 1017.3
20260502184115 20 54 4.8 8.0 0.00 0.00 0.00 43 1017.3
20260502183612 20 292 3.2 6.4 0.00 0.00 0.00 41 1017.3
20260502183108 20 292 3.2 6.4 0.00 0.00 0.00 42 1017.6
20260502182603 19 149 0.0 8.0 0.00 0.00 0.00 42 1017.6
20260502182059 20 261 4.8 8.0 0.00 0.00 0.00 42 1017.5
20260502181557 19 70 1.6 3.2 0.00 0.00 0.00 42 1017.6
20260502181056 18 259 4.8 8.0 0.00 0.00 0.00 43 1017.8
20260502180552 19 178 0.0 4.8 0.00 0.00 0.00 43 1017.6
20260502170512 18 41 6.4 8.0 0.00 0.00 0.00 48 1018.0
20260502163955 17 124 3.2 6.4 0.00 0.00 0.00 52 1018.1
20260502163451 16 268 0.0 3.2 0.00 0.00 0.00 55 1018.2
20260502162949 16 83 4.8 4.8 0.00 0.00 0.00 54 1018.3
20260502162445 16 170 3.2 4.8 0.00 0.00 0.00 56 1018.1
20260502161943 15 85 0.0 6.4 0.00 0.00 0.00 58 1018.1
20260502161438 16 49 3.2 4.8 0.00 0.00 0.00 59 1018.2
20260502160937 15 34 6.4 8.0 0.00 0.00 0.00 59 1018.1
20260502160435 15 322 3.2 6.4 0.00 0.00 0.00 61 1018.1
20260502151907 11 61 3.2 4.8 0.00 0.00 0.00 73 1018.3
20260502151403 11 65 0.0 3.2 0.00 0.00 0.00 74 1018.1
20260502150901 10 54 4.8 4.8 0.00 0.00 0.00 76 1018.3
20260502150357 10 89 1.6 3.2 0.00 0.00 0.00 77 1018.3
20260502130745 5 28 0.0 3.2 0.00 0.00 0.00 88 1017.4
20260502130243 5 106 1.6 1.6 0.00 0.00 0.00 89 1017.5
20260502123729 5 82 1.6 3.2 0.00 0.00 0.00 89 1017.6
20260502123225 5 100 1.6 3.2 0.00 0.00 0.00 88 1017.8
20260502122722 5 57 1.6 4.8 0.00 0.00 0.00 87 1017.6
20260502122218 5 20 1.6 3.2 0.00 0.00 0.00 87 1017.6
20260502121717 6 55 0.0 3.2 0.00 0.00 0.00 86 1017.5
20260502121214 6 37 3.2 3.2 0.00 0.00 0.00 86 1017.3
20260502120710 6 34 4.8 4.8 0.00 0.00 0.00 85 1017.3
20260502120207 6 70 3.2 3.2 0.00 0.00 0.00 85 1017.5
20260502115705 6 72 1.6 3.2 0.00 0.00 0.00 84 1017.3
20260502115201 6 95 0.0 3.2 0.00 0.00 0.00 84 1017.1
20260502114657 6 89 1.6 3.2 0.00 0.00 0.00 83 1017.5
20260502114154 6 112 1.6 1.6 0.00 0.00 0.00 82 1017.5
20260502113652 6 73 0.0 3.2 0.00 0.00 0.00 82 1017.4
20260502113150 6 135 0.0 1.6 0.00 0.00 0.00 81 1017.4
20260502112648 7 32 0.0 3.2 0.00 0.00 0.00 80 1017.5
20260502112145 7 208 0.0 3.2 0.00 0.00 0.00 79 1017.3
20260502111642 7 195 0.0 3.2 0.00 0.00 0.00 79 1017.6
20260502111140 6 187 3.2 3.2 0.00 0.00 0.00 82 1017.3
20260502110637 6 53 3.2 3.2 0.00 0.00 0.00 84 1017.1
20260502110134 6 72 3.2 3.2 0.00 0.00 0.00 84 1017.3
20260502105632 6 348 0.0 3.2 0.00 0.00 0.00 83 1017.5
20260502105129 6 172 0.0 3.2 0.00 0.00 0.00 83 1017.6
20260502104626 6 101 0.0 1.6 0.00 0.00 0.00 84 1017.6
20260502104123 6 175 1.6 3.2 0.00 0.00 0.00 85 1017.4
20260502103621 6 180 0.0 3.2 0.00 0.00 0.00 86 1017.5
20260502103119 6 195 0.0 3.2 0.00 0.00 0.00 85 1017.5
20260502102615 6 40 0.0 1.6 0.00 0.00 0.00 85 1017.3
20260502102112 6 89 0.0 1.6 0.00 0.00 0.00 85 1017.1
20260502101610 6 75 0.0 1.6 0.00 0.00 0.00 84 1017.4
20260502101108 6 315 0.0 1.6 0.00 0.00 0.00 85 1017.3
20260502100606 6 173 0.0 3.2 0.00 0.00 0.00 84 1017.4
20260502100104 6 212 0.0 0.0 0.00 0.00 0.00 83 1017.1
20260502091038 7 103 0.0 1.6 0.00 0.00 0.00 80 1017.0
20260502090535 7 68 1.6 3.2 0.00 0.00 0.00 79 1017.3
20260502071429 8 63 0.0 1.6 0.00 0.00 0.00 75 1017.6
20260502070928 9 216 0.0 3.2 0.00 0.00 0.00 75 1017.7
20260502070425 8 135 0.0 1.6 0.00 0.00 0.00 76 1017.6
20260502065924 8 200 3.2 3.2 0.00 0.00 0.00 75 1017.4
20260502065422 8 229 0.0 1.6 0.00 0.00 0.00 74 1017.4
20260502064920 8 269 1.6 4.8 0.00 0.00 0.00 73 1017.3
20260502064417 9 23 0.0 1.6 0.00 0.00 0.00 73 1017.3
20260502063914 10 98 0.0 3.2 0.00 0.00 0.00 73 1017.1
20260502063412 10 111 0.0 3.2 0.00 0.00 0.00 74 1017.3
20260502062909 9 66 0.0 1.6 0.00 0.00 0.00 74 1017.4
20260502062406 10 91 0.0 1.6 0.00 0.00 0.00 73 1017.3
20260502061905 10 89 0.0 3.2 0.00 0.00 0.00 72 1017.1
20260502061403 10 76 0.0 1.6 0.00 0.00 0.00 71 1017.4
20260502060858 10 89 0.0 1.6 0.00 0.00 0.00 70 1017.3
20260502060353 10 25 0.0 1.6 0.00 0.00 0.00 70 1017.5
20260502055851 11 93 0.0 1.6 0.00 0.00 0.00 68 1017.1
20260502055349 11 103 0.0 1.6 0.00 0.00 0.00 66 1017.3
20260502054848 11 89 0.0 1.6 0.00 0.00 0.00 65 1017.3
20260502054345 11 119 0.0 3.2 0.00 0.00 0.00 64 1017.3
20260502053843 12 139 1.6 3.2 0.00 0.00 0.00 64 1017.1
20260502053340 11 94 0.0 3.2 0.00 0.00 0.00 65 1017.4
20260502052837 12 129 0.0 3.2 0.00 0.00 0.00 65 1017.3
20260502052335 12 113 0.0 1.6 0.00 0.00 0.00 64 1017.3
20260502051833 12 106 1.6 3.2 0.00 0.00 0.00 65 1017.3
20260502051331 12 123 0.0 3.2 0.00 0.00 0.00 66 1017.4